Time,TemperatureF,DewpointF,PressureIn,WindDirection,WindDirectionDegrees,WindSpeedMPH,WindSpeedGustMPH,Humidity,HourlyPrecipIn,Conditions,Clouds,dailyrainin,SoftwareType,DateUTC
2016-02-13 00:44:00,15.0,5.0,-100.00,NNW,345,7.0,11.0,64,-99.99,,,-99.99,,2016-02-13 05:44:00,
2016-02-13 01:34:00,14.0,5.0,-100.00,NNW,335,4.0,9.0,68,-99.99,,,-99.99,,2016-02-13 06:34:00,
2016-02-13 01:54:00,13.0,5.0,-100.00,NNW,340,4.0,7.0,70,-99.99,,,-99.99,,2016-02-13 06:54:00,
2016-02-13 02:04:00,13.0,5.0,-100.00,NNW,345,4.0,7.0,70,-99.99,,,-99.99,,2016-02-13 07:04:00,
2016-02-13 02:34:00,12.0,5.0,-100.00,NNW,335,3.0,7.0,72,-99.99,,,-99.99,,2016-02-13 07:34:00,
2016-02-13 02:54:00,12.0,4.0,-100.00,NNW,340,4.0,8.0,70,-99.99,,,-99.99,,2016-02-13 07:54:00,
2016-02-13 03:04:00,12.0,4.0,-100.00,NNW,335,2.0,6.0,70,-99.99,,,-99.99,,2016-02-13 08:04:00,
2016-02-13 03:23:00,12.0,4.0,-100.00,NNW,340,3.0,6.0,71,-99.99,,,-99.99,,2016-02-13 08:23:00,
2016-02-13 03:36:00,12.0,5.0,-100.00,North,355,5.0,8.0,71,-99.99,,,-99.99,,2016-02-13 08:36:00,
2016-02-13 03:44:00,12.0,5.0,-100.00,North,355,3.0,9.0,71,-99.99,,,-99.99,,2016-02-13 08:44:00,
2016-02-13 04:33:00,12.0,4.0,-100.00,NNW,335,5.0,11.0,70,-99.99,,,-99.99,,2016-02-13 09:33:00,
2016-02-13 04:44:00,12.0,5.0,-100.00,NNW,340,4.0,9.0,71,-99.99,,,-99.99,,2016-02-13 09:44:00,
2016-02-13 05:04:00,12.0,5.0,-100.00,NW,320,4.0,9.0,73,-99.99,,,-99.99,,2016-02-13 10:04:00,
2016-02-13 05:36:00,11.0,6.0,-100.00,NNE,25,4.0,6.0,80,-99.99,,,-99.99,,2016-02-13 10:36:00,
2016-02-13 05:44:00,11.0,7.0,-100.00,North,5,3.0,8.0,85,-99.99,,,-99.99,,2016-02-13 10:44:00,
2016-02-13 06:04:00,10.0,5.0,-100.00,North,0,4.0,7.0,80,-99.99,,,-99.99,,2016-02-13 11:04:00,
2016-02-13 06:34:00,9.0,1.0,-100.00,NNE,20,4.0,7.0,67,-99.99,,,-99.99,,2016-02-13 11:34:00,
2016-02-13 06:44:00,9.0,-1.0,-100.00,North,0,4.0,7.0,64,-99.99,,,-99.99,,2016-02-13 11:44:00,
2016-02-13 07:46:00,7.0,-5.0,-100.00,NNE,25,3.0,5.0,56,-99.99,,,-99.99,,2016-02-13 12:46:00,
2016-02-13 08:23:00,7.0,-5.0,-100.00,NNW,345,2.0,3.0,59,-99.99,,,-99.99,,2016-02-13 13:23:00,
2016-02-13 08:34:00,7.0,-5.0,-100.00,North,0,2.0,4.0,59,-99.99,,,-99.99,,2016-02-13 13:34:00,
2016-02-13 09:04:00,8.0,-6.0,-100.00,North,0,2.0,4.0,54,-99.99,,,-99.99,,2016-02-13 14:04:00,
2016-02-13 09:34:00,9.0,-5.0,-100.00,North,0,2.0,6.0,52,-99.99,,,-99.99,,2016-02-13 14:34:00,
2016-02-13 09:44:00,9.0,-5.0,-100.00,North,10,2.0,5.0,52,-99.99,,,-99.99,,2016-02-13 14:44:00,
2016-02-13 09:54:00,10.0,-5.0,-100.00,NE,35,3.0,6.0,51,-99.99,,,-99.99,,2016-02-13 14:54:00,
2016-02-13 11:04:00,12.0,-6.0,-100.00,NNE,30,3.0,6.0,44,-99.99,,,-99.99,,2016-02-13 16:04:00,
2016-02-13 12:13:00,13.0,-2.0,-100.00,NNW,340,2.0,8.0,50,-99.99,,,-99.99,,2016-02-13 17:13:00,
2016-02-13 12:36:00,15.0,-2.0,-100.00,North,0,3.0,7.0,46,-99.99,,,-99.99,,2016-02-13 17:36:00,
2016-02-13 12:44:00,15.0,-2.0,-100.00,North,0,3.0,7.0,46,-99.99,,,-99.99,,2016-02-13 17:44:00,
2016-02-13 12:54:00,14.0,-4.0,-100.00,NNW,335,2.0,5.0,44,-99.99,,,-99.99,,2016-02-13 17:54:00,
2016-02-13 13:04:00,15.0,-4.0,-100.00,NW,305,2.0,7.0,44,-99.99,,,-99.99,,2016-02-13 18:04:00,
2016-02-13 13:24:00,15.0,-4.0,-100.00,West,265,4.0,7.0,42,-99.99,,,-99.99,,2016-02-13 18:24:00,
2016-02-13 13:45:00,16.0,-3.0,-100.00,WNW,300,4.0,8.0,44,-99.99,,,-99.99,,2016-02-13 18:45:00,
2016-02-13 13:55:00,17.0,-2.0,-100.00,North,0,3.0,7.0,43,-99.99,,,-99.99,,2016-02-13 18:55:00,
2016-02-13 14:34:00,17.0,1.0,-100.00,North,0,4.0,9.0,50,-99.99,,,-99.99,,2016-02-13 19:34:00,
2016-02-13 14:44:00,15.0,-1.0,-100.00,North,0,6.0,7.0,50,-99.99,,,-99.99,,2016-02-13 19:44:00,
2016-02-13 14:54:00,16.0,1.0,-100.00,North,0,4.0,7.0,51,-99.99,,,-99.99,,2016-02-13 19:54:00,
2016-02-13 15:04:00,15.0,1.0,-100.00,NW,315,3.0,7.0,52,-99.99,,,-99.99,,2016-02-13 20:04:00,
2016-02-13 15:24:00,15.0,2.0,-100.00,NW,325,4.0,9.0,54,-99.99,,,-99.99,,2016-02-13 20:24:00,
2016-02-13 15:36:00,15.0,2.0,-100.00,North,0,4.0,8.0,55,-99.99,,,-99.99,,2016-02-13 20:36:00,
2016-02-13 15:47:00,15.0,2.0,-100.00,NNE,15,3.0,8.0,57,-99.99,,,-99.99,,2016-02-13 20:47:00,
2016-02-13 15:54:00,15.0,1.0,-100.00,North,355,4.0,8.0,53,-99.99,,,-99.99,,2016-02-13 20:54:00,
2016-02-13 16:04:00,15.0,1.0,-100.00,NNW,330,4.0,7.0,53,-99.99,,,-99.99,,2016-02-13 21:04:00,
2016-02-13 16:34:00,16.0,1.0,-100.00,North,350,4.0,7.0,52,-99.99,,,-99.99,,2016-02-13 21:34:00,
2016-02-13 16:44:00,15.0,0.0,-100.00,North,355,4.0,7.0,51,-99.99,,,-99.99,,2016-02-13 21:44:00,
2016-02-13 17:04:00,15.0,0.0,-100.00,NNW,340,2.0,5.0,52,-99.99,,,-99.99,,2016-02-13 22:04:00,
2016-02-13 17:34:00,15.0,0.0,-100.00,NNE,15,2.0,7.0,50,-99.99,,,-99.99,,2016-02-13 22:34:00,
2016-02-13 17:44:00,15.0,0.0,-100.00,NE,35,2.0,6.0,50,-99.99,,,-99.99,,2016-02-13 22:44:00,
2016-02-13 17:54:00,15.0,0.0,-100.00,North,0,5.0,9.0,50,-99.99,,,-99.99,,2016-02-13 22:54:00,
2016-02-13 18:04:00,15.0,0.0,-100.00,NNW,335,2.0,6.0,50,-99.99,,,-99.99,,2016-02-13 23:04:00,
2016-02-13 18:34:00,14.0,0.0,-100.00,NNE,20,2.0,4.0,55,-99.99,,,-99.99,,2016-02-13 23:34:00,
2016-02-13 18:44:00,14.0,0.0,-100.00,NNE,20,1.0,3.0,55,-99.99,,,-99.99,,2016-02-13 23:44:00,
2016-02-13 18:56:00,13.0,1.0,-100.00,NNE,25,1.0,3.0,56,-99.99,,,-99.99,,2016-02-13 23:56:00,
2016-02-13 19:04:00,13.0,0.0,-100.00,NW,305,1.0,3.0,56,-99.99,,,-99.99,,2016-02-14 00:04:00,
2016-02-13 19:47:00,13.0,0.0,-100.00,NNE,25,1.0,2.0,56,-99.99,,,-99.99,,2016-02-14 00:47:00,
2016-02-13 19:54:00,13.0,0.0,-100.00,NNE,30,1.0,2.0,57,-99.99,,,-99.99,,2016-02-14 00:54:00,
2016-02-13 20:04:00,12.0,1.0,-100.00,NE,45,1.0,2.0,60,-99.99,,,-99.99,,2016-02-14 01:04:00,
2016-02-13 20:34:00,12.0,1.0,-100.00,NE,45,1.0,4.0,61,-99.99,,,-99.99,,2016-02-14 01:34:00,
2016-02-13 20:44:00,11.0,1.0,-100.00,NE,40,1.0,2.0,62,-99.99,,,-99.99,,2016-02-14 01:44:00,
2016-02-13 20:54:00,11.0,1.0,-100.00,NE,40,1.0,2.0,63,-99.99,,,-99.99,,2016-02-14 01:54:00,
2016-02-13 21:03:00,11.0,1.0,-100.00,NE,40,1.0,2.0,65,-99.99,,,-99.99,,2016-02-14 02:03:00,